Waarnemingen

Advertentie
Mijn weer
Eskdalemuir, Groot Brittannië (3162): temperatuur & dauwpunt: 16.06.2018 08:00:00 - 22.06.2018 08:00:00 (BST)Eskdalemuir, Groot Brittannië (3162): temperatuur -20cm & temperatuur -100cm: 16.06.2018 08:00:00 - 22.06.2018 08:00:00 (BST)Eskdalemuir, Groot Brittannië (3162): windsnelheid & windstoten: 16.06.2018 08:00:00 - 22.06.2018 08:00:00 (BST)Eskdalemuir, Groot Brittannië (3162): windrichting: 16.06.2018 08:00:00 - 22.06.2018 08:00:00 (BST)Eskdalemuir, Groot Brittannië (3162): luchtdruk: 16.06.2018 08:00:00 - 22.06.2018 08:00:00 (BST)Eskdalemuir, Groot Brittannië (3162): zicht: 16.06.2018 08:00:00 - 22.06.2018 08:00:00 (BST)Eskdalemuir, Groot Brittannië (3162): Zonneschijnduur: 16.06.2018 08:00:00 - 22.06.2018 08:00:00 (BST)Eskdalemuir, Groot Brittannië (3162): neerslag: 16.06.2018 08:00:00 - 22.06.2018 08:00:00 (BST)
Datum & Tijd tt [°C] td [°C] tt -20cm [°C] tt -100cm [°C] ff [km/u] ff [kn] fx [km/u] fx [kn] dd ppp [hPa] vv [km] sd [min] rr [mm]
22.06.2018 08:00:00 10,1 5,7 - - 9 5 - - ZO 1031,9 40 60 0,0
22.06.2018 07:00:00 6,2 4,3 - - 5 3 - - ZO 1031,9 40 60 0,0
22.06.2018 06:00:00 4,8 3,0 - - 4 2 - - OZO 1032,0 35 36 0,0
22.06.2018 05:00:00 3,9 2,8 - - 5 3 - - OZO 1031,9 24 0 0,0
22.06.2018 04:00:00 4,8 3,4 - - 5 3 - - ZZO 1031,7 30 0 0,0
22.06.2018 03:00:00 6,9 3,5 - - 11 6 - - NW 1031,4 40 0 0,0
22.06.2018 02:00:00 7,0 3,9 - - 5 3 - - ZW 1031,3 35 0 0,0
22.06.2018 01:00:00 7,1 4,4 - - 5 3 - - NW 1031,3 30 - 0,0
22.06.2018 00:00:00 8,7 4,5 - - 15 8 - - NW 1030,8 35 0 0,0
21.06.2018 23:00:00 9,8 4,3 - - 24 13 - - NW 1030,3 45 0 0,0
21.06.2018 22:00:00 10,4 4,6 - - 18 10 - - WNW 1030,1 35 30 0,0
21.06.2018 21:00:00 11,9 5,2 - - 21 11 - - NW 1029,3 50 54 0,0
21.06.2018 20:00:00 14,1 4,2 - - 16 9 - - NW 1028,9 40 60 0,0
21.06.2018 19:00:00 14,8 4,8 - - 18 10 - - WNW 1028,3 29 36 0,0
21.06.2018 18:00:00 14,8 4,8 - - 21 11 - - NW 1027,6 45 24 0,0
21.06.2018 17:00:00 15,1 4,9 - - 18 10 - - W 1027,5 60 42 0,0
21.06.2018 16:00:00 15,3 3,5 - - 26 14 - - WNW 1027,0 40 54 0,0
21.06.2018 15:00:00 14,6 4,0 - - 18 10 - - NW 1026,9 40 30 0,0
21.06.2018 14:00:00 14,0 4,4 - - 16 9 - - WNW 1026,5 40 30 0,0
21.06.2018 13:00:00 13,3 4,1 - - 22 12 - - W 1026,2 60 30 0,0
21.06.2018 12:00:00 12,9 4,4 - - 21 11 - - WNW 1026,2 60 12 0,0
21.06.2018 11:00:00 12,5 4,5 - - 21 11 - - NW 1025,7 60 24 0,0
21.06.2018 10:00:00 11,0 4,0 13,9 12,7 21 11 - - WNW 1025,4 60 36 0,0
21.06.2018 09:00:00 10,4 4,4 - - 21 11 - - WNW 1024,9 60 54 0,0
21.06.2018 08:00:00 9,5 4,3 - - 18 10 - - WNW 1024,5 60 60 0,0
21.06.2018 07:00:00 7,6 3,2 - - 9 5 - - W 1024,0 45 36 0,0
21.06.2018 06:00:00 6,9 3,6 - - 29 16 - - NW 1022,5 40 48 0,0
21.06.2018 05:00:00 6,5 3,5 - - 29 16 50 27 WNW 1021,5 50 0 0,0
21.06.2018 04:00:00 6,7 3,7 - - 31 17 50 27 WNW 1021,0 50 0 0,0
21.06.2018 03:00:00 6,9 3,8 - - 28 15 50 27 WNW 1020,2 50 0 0,0
21.06.2018 02:00:00 6,8 4,1 - - 31 17 52 28 W 1019,7 45 0 0,0
21.06.2018 01:00:00 6,8 4,9 - - 18 10 - - W 1019,8 30 - 0,6
21.06.2018 00:00:00 8,0 6,0 - - 16 9 50 27 W 1019,5 40 0 0,2
20.06.2018 23:00:00 8,7 5,3 - - 29 16 - - WZW 1019,1 35 0 0,0
20.06.2018 22:00:00 9,0 4,7 - - 21 11 - - W 1019,4 50 0 0,0
20.06.2018 21:00:00 9,6 5,3 - - 11 6 - - WZW 1019,3 45 6 0,0
20.06.2018 20:00:00 10,3 5,6 - - 18 10 - - WZW 1019,3 50 0 0,0
20.06.2018 19:00:00 11,3 4,3 - - 21 11 - - W 1018,9 50 18 0,0
20.06.2018 18:00:00 11,9 5,1 - - 18 10 - - W 1018,6 45 0 0,0
20.06.2018 17:00:00 12,9 5,9 - - 18 10 - - W 1018,3 29 6 0,0
20.06.2018 16:00:00 14,1 7,0 - - 16 9 - - W 1017,5 60 6 0,0
20.06.2018 15:00:00 14,0 8,5 - - 15 8 - - NW 1017,3 40 6 0,0
20.06.2018 14:00:00 12,9 9,4 - - 13 7 - - WNW 1016,6 60 6 0,0
20.06.2018 13:00:00 11,8 9,2 - - 18 10 - - W 1016,2 60 0 0,0
20.06.2018 12:00:00 12,7 9,1 - - 22 12 - - NW 1015,1 60 0 0,0
20.06.2018 11:00:00 13,3 10,3 - - 16 9 - - WNW 1013,9 60 6 0,0
20.06.2018 10:00:00 14,1 11,5 13,9 12,7 18 10 - - W 1012,3 60 6 0,0
20.06.2018 09:00:00 13,8 13,5 - - 16 9 48 26 ZZW 1011,2 6 0 0,4
20.06.2018 08:00:00 14,0 13,4 - - 28 15 50 27 ZW 1010,4 6 0 0,0
20.06.2018 07:00:00 14,1 13,7 - - 28 15 48 26 ZW 1010,0 50 0 0,6
20.06.2018 06:00:00 13,8 13,8 - - 28 15 52 28 ZZW 1010,1 11 0 1,0
20.06.2018 05:00:00 13,4 13,3 - - 21 11 - - Z 1010,4 7 0 8,0
20.06.2018 04:00:00 13,4 13,2 - - 29 16 55 30 Z 1010,5 5 0 6,2
20.06.2018 03:00:00 13,5 13,5 - - 35 19 57 31 Z 1010,8 3,1 0 0,2
20.06.2018 02:00:00 13,5 13,5 - - 34 18 48 26 Z 1011,5 4,0 0 0,8
20.06.2018 01:00:00 13,0 13,0 - - 22 12 - - ZZW 1012,3 3,7 - 0,0
20.06.2018 00:00:00 10,7 10,7 - - 8 4 - - ZZW 1013,4 5 0 1,4
19.06.2018 23:00:00 9,2 9,1 - - 2 1 - - NNW 1014,4 3,1 0 3,4
19.06.2018 22:00:00 9,1 9,0 - - 5 3 - - NW 1015,1 2,6 0 2,2
19.06.2018 21:00:00 8,9 8,7 - - 2 1 - - W 1016,1 4,0 0 1,8
19.06.2018 20:00:00 8,8 8,5 - - 4 2 - - O 1017,2 2,9 0 1,4
19.06.2018 19:00:00 9,4 8,8 - - 11 6 - - Z 1017,7 4,1 0 0,6
19.06.2018 18:00:00 11,8 7,3 - - 16 9 - - Z 1018,1 12 0 0,0
19.06.2018 17:00:00 12,4 7,0 - - 18 10 - - ZZO 1018,4 30 0 0,0
19.06.2018 16:00:00 13,4 6,8 - - 15 8 - - ZW 1018,7 30 0 0,0
19.06.2018 15:00:00 12,5 5,5 - - 21 11 - - ZZW 1019,2 30 0 0,0
19.06.2018 14:00:00 12,8 6,1 - - 24 13 - - ZZW 1019,3 30 0 0,0
19.06.2018 13:00:00 12,5 6,0 - - 26 14 - - ZZW 1019,5 30 0 0,0
19.06.2018 12:00:00 12,3 5,8 - - 21 11 - - ZZW 1019,6 25 0 0,0
19.06.2018 11:00:00 12,1 6,0 - - 24 13 - - ZZW 1019,6 25 0 0,0
19.06.2018 10:00:00 11,2 6,2 13,9 12,7 24 13 - - Z 1019,7 25 0 0,0
19.06.2018 09:00:00 10,7 6,3 - - 21 11 - - ZZW 1019,7 25 6 0,0
19.06.2018 08:00:00 8,7 5,9 - - 13 7 - - Z 1019,7 25 12 0,0
19.06.2018 07:00:00 7,4 5,5 - - 13 7 - - ZZO 1019,1 20 0 0,0
19.06.2018 06:00:00 7,5 5,2 - - 9 5 - - Z 1018,7 18 12 0,0
19.06.2018 05:00:00 6,9 4,2 - - 11 6 - - ZO 1017,9 22 0 0,0
19.06.2018 04:00:00 7,1 3,9 - - 9 5 - - ZZW 1017,5 21 0 0,0
19.06.2018 03:00:00 8,2 3,7 - - 15 8 54 29 WZW 1016,9 24 0 0,0
19.06.2018 02:00:00 9,0 4,9 - - 28 15 50 27 WZW 1016,3 20 0 0,0
19.06.2018 01:00:00 9,0 5,6 - - 18 10 - - WZW 1016,1 18 - 0,0
19.06.2018 00:00:00 9,1 4,9 - - 21 11 - - WZW 1015,6 27 0 0,0
18.06.2018 23:00:00 9,6 6,1 - - 24 13 46 25 W 1015,1 21 0 0,0
18.06.2018 22:00:00 9,9 6,2 - - 26 14 - - W 1014,4 22 0 0,0
18.06.2018 21:00:00 10,7 8,9 - - 29 16 46 25 W 1013,6 15 0 0,2
18.06.2018 20:00:00 12,3 10,7 - - 26 14 - - WZW 1012,4 4,6 0 0,0
18.06.2018 19:00:00 12,1 10,9 - - 28 15 48 26 ZW 1012,4 13 0 0,0
18.06.2018 18:00:00 12,7 10,2 - - 31 17 - - ZW 1012,5 16 0 0,0
18.06.2018 17:00:00 13,2 9,8 - - 26 14 46 25 ZZW 1012,5 17 18 0,0
18.06.2018 16:00:00 13,0 8,4 - - 22 12 48 26 ZZW 1013,2 30 0 0,0
18.06.2018 15:00:00 13,0 8,5 - - 35 19 54 29 ZZW 1013,5 25 0 0,0
18.06.2018 14:00:00 12,9 8,5 - - 29 16 - - ZZW 1013,2 25 0 0,0
18.06.2018 13:00:00 13,2 9,2 - - 34 18 46 25 ZZW 1013,4 25 0 0,0
18.06.2018 12:00:00 12,3 8,8 - - 28 15 - - ZZW 1013,8 30 0 0,0
18.06.2018 11:00:00 11,9 8,1 - - 28 15 - - ZZW 1013,8 30 0 0,0
18.06.2018 10:00:00 11,2 8,5 14,0 12,9 21 11 - - ZZW 1013,6 30 0 0,0
18.06.2018 09:00:00 10,8 8,5 - - 18 10 - - ZZW 1013,7 28 0 0,0
18.06.2018 08:00:00 10,3 8,0 - - 15 8 - - ZZW 1013,1 20 0 0,0
18.06.2018 07:00:00 10,1 8,9 - - 11 6 - - ZZW 1012,8 40 0 0,0
18.06.2018 06:00:00 10,2 8,0 - - 16 9 - - ZW 1012,3 40 0 0,0
18.06.2018 05:00:00 10,0 8,8 - - 11 6 - - ZZW 1011,7 45 0 0,0
18.06.2018 04:00:00 10,4 8,9 - - 11 6 - - W 1011,3 50 0 0,0
18.06.2018 03:00:00 11,5 10,3 - - 13 7 - - WZW 1011,0 50 0 0,2
18.06.2018 02:00:00 12,4 12,0 - - 9 5 - - W 1010,6 2,9 0 3,6
18.06.2018 01:00:00 12,6 12,0 - - 13 7 - - Z 1010,1 40 - 0,0
18.06.2018 00:00:00 12,7 12,2 - - 13 7 - - ZZW 1010,3 26 0 0,0
17.06.2018 23:00:00 12,9 12,3 - - 16 9 - - ZW 1009,8 30 0 0,0
17.06.2018 22:00:00 12,7 12,7 - - 18 10 - - ZZW 1009,4 8 0 0,4
17.06.2018 21:00:00 12,6 12,6 - - 11 6 - - Z 1009,4 2,5 0 0,8
17.06.2018 20:00:00 12,4 12,3 - - 18 10 - - ZZW 1009,5 7 0 0,6
17.06.2018 19:00:00 12,1 12,1 - - 21 11 - - ZZW 1009,5 2,9 0 0,2
17.06.2018 18:00:00 12,4 12,0 - - 18 10 - - Z 1009,6 4,7 0 0,8
17.06.2018 17:00:00 11,5 11,3 - - 21 11 - - ZZW 1010,0 2,7 0 0,2
17.06.2018 16:00:00 11,5 10,9 - - 24 13 - - ZZW 1010,4 3,1 0 0,0
17.06.2018 15:00:00 12,5 8,8 - - 28 15 - - Z 1010,5 16 6 0,0
17.06.2018 14:00:00 13,5 8,6 - - 26 14 - - ZZW 1010,3 30 6 0,0
17.06.2018 13:00:00 14,8 9,5 - - 26 14 - - ZZW 1009,9 30 6 0,0
17.06.2018 12:00:00 13,3 10,1 - - 22 12 - - Z 1010,4 30 0 0,0
17.06.2018 11:00:00 12,4 9,6 - - 16 9 - - Z 1010,6 30 0 0,0
17.06.2018 10:00:00 12,0 9,6 14,2 13,0 16 9 - - ZW 1010,5 29 0 0,0
17.06.2018 09:00:00 10,8 9,3 - - 11 6 - - ZW 1010,6 30 0 0,0
17.06.2018 08:00:00 7,9 7,6 - - 4 2 - - ZZO 1010,9 29 0 0,0
17.06.2018 07:00:00 6,6 6,6 - - 2 1 - - NNO 1010,8 14 0 0,0
17.06.2018 06:00:00 4,6 4,6 - - 4 2 - - NNW 1010,9 29 0 0,0
17.06.2018 05:00:00 3,5 3,5 - - 4 2 - - NW 1010,8 26 0 0,0
17.06.2018 04:00:00 2,7 2,7 - - 2 1 - - ZZO 1010,7 24 0 0,0
17.06.2018 03:00:00 3,4 3,3 - - 2 1 - - NW 1010,5 21 0 0,0
17.06.2018 02:00:00 4,4 4,2 - - 2 1 - - O 1010,5 25 0 0,0
17.06.2018 01:00:00 4,7 4,5 - - 5 3 - - ZW 1010,2 45 - 0,0
17.06.2018 00:00:00 4,7 4,5 - - 4 2 - - NNW 1009,9 50 0 0,0
16.06.2018 23:00:00 6,9 5,7 - - 5 3 - - ZZO 1009,5 50 0 0,0
16.06.2018 22:00:00 8,9 5,6 - - 9 5 - - ZW 1008,7 50 24 0,0
16.06.2018 21:00:00 10,6 4,3 - - 16 9 - - ZW 1008,2 50 60 0,0
16.06.2018 20:00:00 12,1 5,6 - - 13 7 - - WZW 1007,8 50 24 0,0
16.06.2018 19:00:00 12,6 6,0 - - 18 10 - - WZW 1007,2 45 42 0,0
16.06.2018 18:00:00 12,4 8,5 - - 15 8 - - ZW 1006,9 50 18 0,0
16.06.2018 17:00:00 11,6 8,3 - - 13 7 - - WZW 1006,8 35 30 1,4
16.06.2018 16:00:00 11,6 10,7 - - 15 8 - - Z 1006,4 17 6 0,0
16.06.2018 15:00:00 12,2 11,1 - - 24 13 - - Z 1006,5 10 6 0,4
16.06.2018 14:00:00 12,1 11,8 - - 22 12 - - Z 1006,7 26 0 3,4
16.06.2018 13:00:00 11,1 10,8 - - 22 12 - - ZZO 1007,3 2,8 0 1,6
16.06.2018 12:00:00 10,3 10,0 - - 18 10 - - ZZO 1008,1 5 0 2,0
16.06.2018 11:00:00 10,3 9,9 - - 16 9 - - ZZO 1008,8 20 0 1,0
16.06.2018 10:00:00 10,0 9,6 14,7 13,0 16 9 - - ZO 1009,2 13 0 1,0
16.06.2018 09:00:00 9,9 9,5 - - 16 9 - - ZZO 1009,8 10 0 1,0
16.06.2018 08:00:00 10,1 8,9 - - 13 7 - - ZZO 1010,1 15 0 0,2

tt = temperatuur
td = dauwpunt
tt -20cm = temperatuur -20cm
tt -100cm = temperatuur -100cm
ff = windsnelheid
fx = windstoten
dd = windrichting
ppp = luchtdruk
vv = zicht
sd = Zonneschijnduur
rr = neerslag

Weerstations in de omgeving